Location: La Pernelle
(49.6188°N, 1.2999°W)
Time: 13:36:20
(UTC+00:00)

ATLAS 3B R/B - Pass Details

Date: 12 June 2021
Orbit: 1003 x 1191 km, 63.8° (Epoch: 21 July)

Event Time Altitude Azimuth Distance (km) Brightness Sun altitude
Exits shadow 22:39:30 21° 167° (SSE) 2,119 3.6 -14.7°
Maximum altitude 22:43:08 36° 116° (ESE) 1,570 3.2 -14.9°
Drops below altitude 10° 22:49:08 10° 53° (NE) 2,869 5.2 -15.2°
Sets 22:52:01 0° 45° (NE) 3,854 6.0 -15.4°
